Skip Page Navigation
NASA JPL Caltech
NASA Logo - Jet Propulsion Laboratory + View the NASA Portal
+ Center for Near-Earth Object Studies
JPL Home Earth Solar System Stars & Galaxies Technology
JPL Solar System Dynamics
BODIES ORBITS EPHEMERIDES TOOLS PHYSICAL DATA DISCOVERY FAQ SITE MAP
IMPORTANT: The SSD Announcement email list is now available. Major changes are coming in the near future, including possible hostname and/or URL changes. To be notified of such changes, subscribe to this email list.

Please visit this page for more details.


JPL Small-Body Database Browser
Search: [ help ]  
(2010 UJ7)
Classification: Aten [NEO]          SPK-ID: 3550073
Ephemeris | Orbit Diagram | Orbital Elements | Mission Design | Physical Parameters | Close-Approach Data ]

[ hide orbit diagram ]

For accurate long-term ephemerides, please instead use our Horizons system.This orbit viewer was implemented using two-body methods, and hence should not be used for determining accurate long-term trajectories (over several years or decades) or planetary encounter circumstances.


[ revert to old Java-based viewer ]

Orbital Elements at Epoch 2458600.5 (2019-Apr-27.0) TDB
Reference: JPL 9 (heliocentric ecliptic J2000)
 Element Value Uncertainty (1-sigma)   Units 
e .3171995737700117 6.8758e-05  
a .7959467700831244 3.188e-05 au
q .5434727938691398 7.6495e-05 au
i 13.22969477337017 0.0038762 deg
node 219.4458935059877 8.662e-05 deg
peri 331.5199966162191 0.0014246 deg
M 209.7004460515369 0.26896 deg
tp 2458708.787831002295
(2019-Aug-13.28783100)
0.20029 TDB
period 259.3728200563629
0.71
0.015583
4.266e-05
d
yr
n 1.387963472509457 8.3389e-05 deg/d
Q 1.048420746297109 4.1993e-05 au
  Orbit Determination Parameters
   # obs. used (total)      59  
   data-arc span      4 days  
   first obs. used      2010-10-29  
   last obs. used      2010-11-02  
   planetary ephem.      DE431  
   SB-pert. ephem.      SB431-N16  
   condition code      6  
   norm. resid. RMS      .3617  
   source      ORB  
   producer      Otto Matic  
   solution date      2017-Apr-06 08:56:07  

Additional Information
 Earth MOID = .000215614 au 
 Jupiter MOID = 3.91798 au 
 T_jup = 7.259 
[ show covariance matrix ]

Ephemeris | Orbit Diagram | Orbital Elements | Mission Design | Physical Parameters | Close-Approach Data ]

Physical Parameter Table
Parameter Symbol Value Units Sigma Reference Notes
absolute magnitude H 25.4   n/a MPO186438  
rotation period rot_per 0.05305 h n/a LCDB (Rev. 2019-January); Warner et al., 2009 Result based on less than full coverage, so that the period may be wrong by 30 percent or so.
Published Reference List:
[Birtwhistle, P. (2011) Minor Planet Bull. 38, 104-106.]
[Ryan, W. UNPUBLISHED]

[ show close-approach data ]
Ephemeris | Orbit Diagram | Orbital Elements | Mission Design | Physical Parameters | Close-Approach Data ]
ABOUT SSD CREDITS/AWARDS PRIVACY/COPYRIGHT GLOSSARY LINKS
FirstGov
(server date/time)  
NASA Home Page
Site Manager:   Ryan S. Park
Webmaster  Alan B. Chamberlin